Location: Aalsum
(53.3404°N, 6.0062°E)
Time: 09:18:29
(UTC+00:00)

Radarsat Rocket - Pass Details

Date: 28 January 2023
Orbit: 933 x 1491 km, 100.6° (Epoch: 19 March)

Event Time Altitude Azimuth Distance (km) Brightness Sun altitude
Rises 16:38:12 0° 143° (SE) 3,608 6.8 -4.4°
Reaches altitude 10° 16:40:34 10° 139° (SE) 2,695 6.2 -4.8°
Maximum altitude 16:46:25 58° 62° (ENE) 1,178 4.2 -5.6°
Drops below altitude 10° 16:52:53 10° 346° (NNW) 2,980 6.5 -6.5°
Sets 16:55:37 0° 343° (NNW) 4,021 7.2 -6.8°
